This is the latest recevied weather packets stored in our database for station/object W4MSI. If no packets are shown the sender has not sent any weather packets the latest 10 day(s).
| Time | Temp. | Humidity | Pressure | Rain* | Wind** | Luminosity | Snow |
|---|---|---|---|---|---|---|---|
| 1777616249 | 8.33° C | 87% | 1015.3 hPa | 0 mm | - | 0 W/m² | - |
| 1777615946 | 8.33° C | 85% | 1015.4 hPa | 0 mm | - | 0 W/m² | - |
| 1777615643 | 8.33° C | 85% | 1015.2 hPa | 0 mm | - | 0 W/m² | - |
| 1777615340 | 8.33° C | 85% | 1015.2 hPa | 0 mm | - | 0 W/m² | - |
| 1777615038 | 8.33° C | 85% | 1015.4 hPa | 0 mm | - | 0 W/m² | - |
| 1777614735 | 8.33° C | 86% | 1015.4 hPa | 0 mm | - | 0 W/m² | - |
| 1777614430 | 8.33° C | 86% | 1015.4 hPa | 0 mm | - | 0 W/m² | - |
| 1777614126 | 8.33° C | 86% | 1015.5 hPa | 0 mm | - | 0 W/m² | - |
| 1777613821 | 8.33° C | 86% | 1015.4 hPa | 0 mm | - | 0 W/m² | - |
| 1777613519 | 8.33° C | 85% | 1015.5 hPa | 0 mm | - | 0 W/m² | - |
| 1777613215 | 8.33° C | 84% | 1015.5 hPa | 0 mm | - | 0 W/m² | - |
| 1777612912 | 8.33° C | 83% | 1015.5 hPa | 0 mm | - | 0 W/m² | - |
| 1777612607 | 8.33° C | 83% | 1015.4 hPa | 0 mm | - | 0 W/m² | - |
| 1777612303 | 8.33° C | 86% | 1015.7 hPa | 0 mm | - | 0 W/m² | - |
| 1777611999 | 8.33° C | 85% | 1015.6 hPa | 0 mm | - | 0 W/m² | - |
| 1777611694 | 8.33° C | 83% | 1015.4 hPa | 0 mm | - | 0 W/m² | - |
| 1777611391 | 8.33° C | 84% | 1015.4 hPa | 0 mm | - | 0 W/m² | - |
| 1777611089 | 8.33° C | 88% | 1015.3 hPa | 0 mm | - | 0 W/m² | - |
| 1777610789 | 8.33° C | 89% | 1015.4 hPa | 0 mm | - | 0 W/m² | - |
| 1777610489 | 8.33° C | 89% | 1015.4 hPa | 0 mm | - | 0 W/m² | - |
| 1777610184 | 8.33° C | 87% | 1015.4 hPa | 0 mm | - | 0 W/m² | - |
| 1777609881 | 8.33° C | 87% | 1015.2 hPa | 0 mm | - | 0 W/m² | - |
| 1777609578 | 8.33° C | 88% | 1015.2 hPa | 0 mm | - | 0 W/m² | - |
| 1777609275 | 8.33° C | 88% | 1015.4 hPa | 0 mm | - | 0 W/m² | - |
| 1777608972 | 8.33° C | 88% | 1015.4 hPa | 0 mm | - | 0 W/m² | - |
* Rain latest hour (hover to see other rain measurements)
** Current wind speed in m/s (hover to see current wind gust speed)